Location: Utrecht
(52.0907°N, 5.1214°E)
Time: 12:19:32
(UTC+02:00)

SPROUT - Pass Details

Date: 05 July 2022
Orbit: 588 x 598 km, 97.9° (Epoch: 17 August)

Event Time Altitude Azimuth Distance (km) Brightness Sun altitude
Exits shadow 02:56:56 21° 209° (SSW) 1,333 ? -13.4°
Maximum altitude 02:59:08 37° 263° (W) 932 ? -13.3°
Drops below altitude 10° 03:03:02 10° 331° (NNW) 1,931 ? -13.1°
Sets 03:05:21 0° 340° (NNW) 2,840 ? -13.0°
